CSN1723 ZBAD-ZSJN

Flight info

Callsign CSN1723
Flight time N/A
Altitude 16700
Route ELKUR W40 PANKI
Aircraft A20N/M-SDE3FGHIRWY/P

Departure

Time 2026-05-04 06:48
Airport Beijing Daxing International Airport (ZBAD)

Arrival

Time N/A
Airport Jinan Yaoqiang International Airport (ZSJN)
Time Latitude Longitude Altitude Speed Heading
2026-05-04 06:26 39.50668 116.41688 90 ft 0 kts
2026-05-04 06:37 39.50654 116.41687 90 ft 2 kts
2026-05-04 06:38 39.50639 116.41685 90 ft 2 kts
2026-05-04 06:38 39.50624 116.41682 90 ft 2 kts
2026-05-04 06:40 39.50579 116.41649 90 ft 0 kts 84°
2026-05-04 06:44 39.50276 116.41827 90 ft 17 kts 120°
2026-05-04 06:44 39.50276 116.41979 90 ft 17 kts 82°
2026-05-04 06:44 39.50293 116.42137 90 ft 18 kts 82°
2026-05-04 06:45 39.50272 116.42287 90 ft 17 kts 150°
2026-05-04 06:45 39.50154 116.42336 90 ft 17 kts 138°
2026-05-04 06:45 39.50142 116.42462 90 ft 5 kts 80°
2026-05-04 06:45 39.50143 116.42471 90 ft 0 kts 82°
2026-05-04 06:46 39.50148 116.42515 90 ft 7 kts 82°
2026-05-04 06:46 39.50156 116.42599 90 ft 10 kts 83°
2026-05-04 06:48 39.47080 116.43131 1838 ft 163 kts 175°
2026-05-04 06:48 39.45947 116.43533 2510 ft 185 kts 159°
2026-05-04 06:49 39.44764 116.44456 2927 ft 203 kts 148°
2026-05-04 06:50 39.41733 116.59174 5888 ft 285 kts 157°
2026-05-04 06:51 39.39915 116.59747 7362 ft 276 kts 178°
2026-05-04 06:51 39.38033 116.59853 8655 ft 278 kts 179°
2026-05-04 06:51 39.36084 116.59946 9819 ft 284 kts 179°
2026-05-04 06:51 39.34103 116.60066 10868 ft 294 kts 179°
2026-05-04 06:52 39.32007 116.60214 11622 ft 313 kts 178°
2026-05-04 06:52 39.29764 116.60394 12317 ft 333 kts 178°
2026-05-04 06:52 39.27417 116.60590 12910 ft 341 kts 178°
2026-05-04 06:52 39.27125 116.60615 12955 ft 341 kts 178°
2026-05-04 06:53 39.24759 116.60825 13167 ft 343 kts 178°
2026-05-04 06:53 39.22425 116.61050 13793 ft 331 kts 178°
2026-05-04 06:53 39.20180 116.61269 14494 ft 319 kts 179°
2026-05-04 06:53 39.18023 116.61477 15218 ft 307 kts 179°
2026-05-04 06:54 39.15964 116.61675 15933 ft 294 kts 180°
2026-05-04 06:54 39.13963 116.61868 16411 ft 288 kts 181°
2026-05-04 06:54 39.11978 116.62052 16764 ft 283 kts 181°
2026-05-04 06:54 39.10028 116.62264 16718 ft 284 kts 175°
2026-05-04 06:55 39.08169 116.63200 16342 ft 298 kts 150°
2026-05-04 06:55 39.06733 116.65153 15862 ft 310 kts 124°
2026-05-04 06:55 39.06060 116.67805 15392 ft 316 kts 96°
2026-05-04 06:55 39.06334 116.70606 14970 ft 315 kts 69°
2026-05-04 06:56 39.07479 116.72944 14568 ft 308 kts 41°
2026-05-04 06:57 39.21162 116.74008 13717 ft 287 kts 349°
2026-05-04 06:58 39.23159 116.73701 13717 ft 287 kts 349°
2026-05-04 06:58 39.25144 116.73393 13717 ft 287 kts 349°
2026-05-04 06:58 39.27114 116.73088 13716 ft 287 kts 349°
2026-05-04 06:58 39.29098 116.72780 13715 ft 287 kts 349°